Regional Weather Roundup
Issued by NWS

Home | Current Version | Previous Version | Text Only | Print | Product List | Glossary Off
Versions: 1 2 3 4 5 6 7 8 9 10 11 12 13 14 15 16 17 18 19 20 21 22 23 24 25 26 27 28 29 30 31 32 33 34 35 36 37 38 39 40 41 42 43 44 45 46 47 48 49 50

087
ASUS43 KFSD 050710
RWRSD

WEATHER ROUNDUP FOR SOUTH DAKOTA
NATIONAL WEATHER SERVICE SIOUX FALLS SD
200 AM CDT THU MAY 05 2016

NOTE: "FAIR" INDICATES FEW OR NO CLOUDS BELOW 12,000 FEET WITH NO
SIGNIFICANT WEATHER AND/OR OBSTRUCTIONS TO VISIBILITY.


SDZ001>005-009-010-012>017-050800-
NORTHWEST AND NORTH CENTRAL SOUTH DAKOTA

CITY           SKY/WX    TMP DP  RH WIND       PRES   REMARKS
BUFFALO          N/A     56  44  64 SE8       29.92S
FAITH            N/A     50  43  77 S15       30.00S
MOBRIDGE       CLEAR     52  45  77 SE8       29.96F
$$

SDZ012>016-024>037-041>051-057-063-072>074-050800-
SOUTHWEST AND SOUTH CENTRAL SOUTH DAKOTA

CITY           SKY/WX    TMP DP  RH WIND       PRES   REMARKS
RAPID CTY ARPT CLEAR     50  43  77 SE8       30.01F
PIERRE         PTCLDY    48  40  73 NE3       30.00F
CUSTER         CLEAR     45  34  65 W5        30.13S
ELLSWORTH AFB  CLEAR     56  43  62 S10       30.00F
PHILIP         PTCLDY    58  42  55 VRB7      30.02S
PINE RIDGE     CLEAR     54  39  57 CALM      30.04F
WINNER         FAIR      52  38  58 S8        30.04S
$$

SDZ004>011-016>023-039-040-050800-
NORTHEAST SOUTH DAKOTA

CITY           SKY/WX    TMP DP  RH WIND       PRES   REMARKS
ABERDEEN       CLEAR     46  35  65 S7        29.99S
WATERTOWN      CLEAR     44  35  70 S5        30.01S
BROOKINGS      CLEAR     45  34  65 SE3       30.02S
SISSETON         N/A     46  33  60 SW7       29.97F
$$

SDZ017-020-022-023-036>040-048>070-050800-
SOUTHEAST SOUTH DAKOTA

CITY           SKY/WX    TMP DP  RH WIND       PRES   REMARKS
SIOUX FALLS    CLEAR     44  36  73 CALM      30.02F
HURON          CLEAR     49  41  74 SE3       30.01F
CHAMBERLAIN    CLEAR     54  45  71 SW3       30.03S
MITCHELL       CLEAR     47  42  83 E3        30.03S
YANKTON        CLEAR     48  37  66 NW5       30.03F
$$

ABBREVIATIONS USED IN REMARKS
   TC - TEMPERATURE IN CELSIUS
  WCI - WIND CHILL INDEX
   HX - HEAT INDEX
  VSB - VISIBILITY





USA.gov is the U.S. government's official web portal to all federal, state and local government web resources and services.